sat.trackr.live / text

‹ back to catalog

STARLINK-37904

NORAD 69947 · 2026-157E

PAYLOAD ACTIVE UNKNOWN

§ Identity

Operator
Country
US
Launch date
2026-07-09
Launch site
AFETR
Launch vehicle
Mass (kg)
RCS (m²)

Purposes: comms

External: N2YO · Heavens-Above · Gunter

§ Orbital elements

Epoch: 2026-09-20T04:12:02.083104Z

Period
93.85 min
Inclination
53.1608°
Eccentricity
0.0001455
Mean motion
15.34408119 rev/d
Perigee alt
461.7 km
Apogee alt
463.7 km
Semi-major
6,840.8 km
B*
3.0683e-5
RAAN
335.1907°
Arg perigee
100.8128°
Mean anomaly
259.3038°
Rev number
1,132

§ Raw data

STARLINK-379041 69947U 26157E   26263.17502411  .00000661  00000+0  30683-4 0  99922 69947  53.1608 335.1907 0001455 100.8128 259.3038 15.34408119 11326

JSON: /api/v1/satellites/69947 · /tle

For live sub-satellite position, see the globe view (requires WebGL).

§ Visibility from observer

Set your observer location to see the next 7 days of passes ≥ 10°. The values pass through the URL so the page stays shareable.

No JS? Fill the form by hand. The geolocation button needs JavaScript.